Notices

What's New in latest Release from April 7th, 2021:

- Updated Glossary, including Speed of Maximum Gust, and Total Hourly Precipitation

- Updated national and regional climate services offices contacts and prices information

- Addition of station inventory lists for 1981-2010, 1971-2000, and 1961-1990 Normals.

If you haven't already, please take our survey and provide feedback about our website: https://eccc.sondage-survey.ca/f/LanguageSelection.aspx?s=442ca660-fcf1-47c0-95a9-59707d6fd709

Hourly Data Report for September 28, 2017

VICTORIA UNIVERSITY CS
BRITISH COLUMBIA

48°27'25.200" N
123°18'16.600" W
60.10 m
1018598
71783
WYJ

Download Data

Hourly Data (September 2017)
Hourly Data Report for September 28, 2017
TIME
LST
Temp Definition
°C
Dew Point Definition
°C
Rel Hum Definition
%
Precip. Amount Definition
mm

Wind Dir Definition
10's deg

Wind Spd Definition
km/h
Visibility Definition
km
Stn Press Definition
kPa
Hmdx Definition


Wind Chill Definition


Weather Definition


00:00 14.9 11.9 83 0.0 36 8   100.85     LegendNANA
01:00 15.0 11.7 80 0.0 34 9   100.85     LegendNANA
02:00 15.5 11.6 77 0.0 36 11   100.82     LegendNANA
03:00 13.8 10.9 83 0.0 35 6   100.77     LegendNANA
04:00 14.0 10.7 81 0.0 35 9   100.76     LegendNANA
05:00 14.3 10.8 80 0.0 36 8   100.74     LegendNANA
06:00 14.8 11.5 81 0.0 35 9   100.71     LegendNANA
07:00 15.4 11.7 79 0.0 34 6   100.71     LegendNANA
08:00 16.9 11.9 73 0.0 36 9   100.69     LegendNANA
09:00 18.2 11.5 65 0.0 2 8   100.68     LegendNANA
10:00 19.6 11.4 59 0.0 35 12   100.64     LegendNANA
11:00 21.1 11.4 54 0.0 35 12   100.58     LegendNANA
12:00 21.8 10.6 49 0.0 35 11   100.53     LegendNANA
13:00 23.6 10.6 44 0.0 34 13   100.47 25   LegendNANA
14:00 24.9 9.6 38 0.0 33 13   100.42 26   LegendNANA
15:00 24.8 10.4 40 0.0 1 9   100.37 26   LegendNANA
16:00 23.8 10.7 44 0.0 8 3   100.32 25   LegendNANA
17:00 22.3 11.0 49 0.0 10 2   100.27     LegendNANA
18:00 18.7 9.9 57 0.0 24 5   100.27     LegendNANA
19:00 17.6 10.2 62 0.0 24 5   100.27     LegendNANA
20:00 17.1 9.9 62 0.0 24 4   100.25     LegendNANA
21:00 15.0 10.0 72 0.0 28 5   100.27     LegendNANA
22:00 13.8 10.4 80 0.0 13 2   100.29     LegendNANA
23:00 12.9 10.0 83 0.0 18 4   100.30     LegendNANA

Notes on Data Quality.

Legend

  • E = Estimated
  • M = Missing
  • NA = Not Available*
  • [empty] = Indicates an unobserved value
Date modified: